Regional Weather Roundup
Issued by NWS

Home | Current Version | Previous Version | Text Only | Print | Product List | Glossary Off
Versions: 1 2 3 4 5 6 7 8 9 10 11 12 13 14 15 16 17 18 19 20 21 22 23 24 25 26 27 28 29 30 31 32 33 34 35 36 37 38 39 40 41 42 43 44 45 46 47 48 49 50

000
ASUS45 KBOI 250210
RWRID
WEATHER ROUNDUP FOR IDAHO
NATIONAL WEATHER SERVICE BOISE ID
800 PM MDT THU JUL 24 2014

NOTE: "FAIR" INDICATES FEW OR NO CLOUDS BELOW 12000 FEET
WITH NO SIGNIFICANT WEATHER AND/OR OBSTRUCTIONS TO VISIBILITY

IDZ012-014-250300-
SOUTHWEST IDAHO


CITY           SKY/WX    TMP DP  RH WIND       PRES   REMARKS
BOISE          SUNNY     75  23  14 NW10      30.07S
CALDWELL       SUNNY     73  34  23 N8        30.09S
MOUNTAIN HOME  SUNNY     77  20  12 NW21      30.04F
$$

IDZ016-017-250300-
SOUTHCENTRAL IDAHO


CITY           SKY/WX    TMP DP  RH WIND       PRES   REMARKS
BURLEY         CLEAR     70  35  27 W12G18    30.07F
JEROME         SUNNY     71  19  14 SW13      30.08F
TWIN FALLS     SUNNY     74  27  17 W13       30.10R
$$

IDZ019>023-250300-
SOUTHEAST IDAHO


CITY           SKY/WX    TMP DP  RH WIND       PRES   REMARKS
IDAHO FALLS    CLEAR     74  27  17 SW22      30.05R
POCATELLO      CLEAR     74  36  25 SW17      30.08S
REXBURG        CLEAR     73  28  18 S14G26    30.04S
$$

IDZ006-010-011-018-031-032-250300-
CENTRAL IDAHO MOUNTAINS


CITY           SKY/WX    TMP DP  RH WIND       PRES   REMARKS
MCCALL         SUNNY     66  24  20 VRB5      30.15R
HAILEY         SUNNY     70  32  24 SE8       30.10F
STANLEY          N/A     68  12  11 NW7       30.18S
SALMON         SUNNY     75  32  20 N14       29.95S
CHALLIS        SUNNY     77  18  11 W7        30.03S
$$

IDZ002-004-006-007-026-250300-
NORTHERN IDAHO


CITY           SKY/WX    TMP DP  RH WIND       PRES   REMARKS
LEWISTON       SUNNY     75  41  29 NW16G24   30.05F
LOWELL           N/A     68  46  45 CALM      30.06S
COEUR D`ALENE  CLOUDY    66  46  48 CALM      30.06F
MULLAN PASS    CLOUDY    46  37  71 VRB6G20   30.18S
$$


USA.gov is the U.S. government's official web portal to all federal, state and local government web resources and services.